Location: Bidart
(43.4376°N, 1.5913°W)
Time: 03:23:48
(UTC+00:00)

USA 229 DEB - Pass Details

Date: 25 April 2026
Orbit: 844 x 1364 km, 63.4° (Epoch: 10 January)

Event Time Altitude Azimuth Distance (km) Brightness Sun altitude
Rises 01:20:03 0° 314° (NW) 4,103 7.0 -30.8°
Reaches altitude 10° 01:23:12 10° 302° (WNW) 3,210 6.3 -30.6°
Enters shadow 01:26:45 22° 278° (W) 2,483 5.4 -30.4°
